[[{"header":{"parameterUnit":"m.s-1","parameterCategory":1,"la1":30.2991,"la2":30.254,"lo1":-89.0895,"lo2":-89.0444,"dy":0.0017,"dx":0.0017,"nx":28,"ny":28,"refTime":"2024-12-20T09:00:00:Z","depth":0,"parameterNumber":2,"parameterNumberName":"U-component_of_WINDS"},"data":[0,0,0,0,0,0,0,0,0,0,0,0,0,0,0,0,0,0,0,0,0,0,0,0,0,0,0,0,0,0,0,0,0,0,0,0,0,0,0,0,0,0,0,0,0,0,0,0,0,0,0,0,0,0,0,0,0,0,3.1222,3.1223,0,3.1283,3.1284,3.1284,3.1271,3.127,3.1269,3.1268,3.1332,3.1334,3.1337,0,0,0,0,0,0,0,0,0,0,0,0,0,3.1098,3.1101,3.1222,3.1223,3.1224,3.1283,3.1284,3.1284,3.1272,3.127,3.1269,3.1267,3.1331,3.1334,3.1337,0,0,0,0,0,0,0,0,0,0,0,0,0,3.1155,3.1101,3.1222,3.1224,3.1225,3.1283,3.1284,3.1285,3.1272,3.127,3.1268,3.1267,3.133,3.1334,3.1338,3.1397,0,0,3.135,3.1352,0,0,0,0,0,0,0,0,3.1152,3.1159,3.1223,3.1224,3.1225,3.1268,3.1263,3.1322,3.1272,3.1254,3.1268,3.1266,3.1312,3.1317,3.1333,3.14,3.1403,3.1351,3.1353,3.1355,3.1356,0,0,0,0,0,0,0,3.1148,3.1157,3.1246,3.1224,3.1225,3.1223,3.123,3.1274,3.1292,3.1256,3.1255,3.1262,3.1312,3.1329,3.1334,3.1404,3.1351,3.1354,3.1357,3.1358,3.1527,3.1529,0,0,0,0,0,0,3.1143,3.1154,3.1244,3.1248,3.1183,3.1227,3.1234,3.1256,3.1291,3.1295,3.1263,3.1261,3.1322,3.1329,3.1336,3.1411,3.1355,3.1359,3.1361,3.1526,3.1528,3.153,0,0,0,0,0,0,3.114,3.1151,3.1242,3.1201,3.1212,3.1231,3.1256,3.1258,3.1274,3.1297,3.13,3.1277,3.1321,3.133,3.1383,3.1413,3.1361,3.1364,3.1523,3.1526,3.1529,3.1559,0,0,0,0,0,0,3.1137,3.115,3.1172,3.1201,3.1214,3.1287,3.1257,3.126,3.1281,3.1279,3.1311,3.1314,3.1321,3.1377,3.1387,3.1417,3.1368,3.1521,3.1525,3.1528,3.1555,3.1562,3.1568,0,0,0,0,0,3.1132,3.1177,3.1173,3.1184,3.1242,3.1288,3.1296,3.1302,3.1284,3.1307,3.1322,3.1313,3.1408,3.1382,3.1394,3.1426,3.1519,3.1523,3.1528,3.1552,3.1561,3.1568,0,0,0,0,0,0,3.115,3.1181,3.1177,3.1232,3.1258,3.1286,3.1315,3.131,3.1342,3.1338,3.1345,3.1352,3.1406,3.1421,3.1392,3.1487,3.1461,3.1468,3.1475,3.1484,3.1491,3.1486,3.1371,0,0,0,0,0,3.1161,3.1195,3.122,3.1267,3.128,3.1296,3.1316,3.1318,3.1345,3.1356,3.1375,3.1402,3.1438,3.1462,3.1496,3.1557,3.1566,3.1585,3.1592,3.1597,3.1604,3.164,3.165,3.1545,3.1545,3.1545,0,0,3.1183,3.1204,3.1225,3.1272,3.1292,3.1329,3.1305,3.1344,3.1372,3.1362,3.1414,3.1429,3.146,3.1518,3.1544,3.1532,3.1635,3.1603,3.1607,3.1611,3.1646,3.1656,3.1665,3.1548,3.1548,3.1547,0,0,3.1242,3.1261,3.1303,3.1324,3.1355,3.1366,3.1376,3.1405,3.1415,3.1467,3.1461,3.1495,3.1556,3.158,3.1599,3.1671,3.1666,3.1682,3.1717,3.1753,3.1762,3.1769,3.1797,3.1807,3.1688,3.1688,3.1688,0,3.1266,3.132,3.1326,3.1367,3.1388,3.1382,3.1426,3.1446,3.1487,3.1503,3.1488,3.1567,3.1587,3.1652,3.167,3.1685,3.1699,3.1679,3.176,3.1767,3.1774,3.1801,3.1812,3.169,3.169,3.169,3.169,0,3.1349,3.1388,3.1418,3.1459,3.1484,3.1526,3.1539,3.1565,3.1566,3.1578,3.1633,3.1657,3.1697,3.1713,3.1714,3.1779,3.1771,3.1758,3.1732,3.1786,3.1812,3.1822,3.1693,3.1692,3.1692,3.1691,0,0,3.1421,3.1465,3.1477,3.1496,3.1531,3.1562,3.1605,3.1645,3.1667,3.1696,3.1734,3.1788,3.1777,3.18,3.1803,3.1835,3.1894,3.1818,3.1819,3.1834,3.1971,3.1981,3.1993,3.189,3.1892,3.1893,3.1969,0,3.1485,3.1561,3.1568,3.1637,3.1674,3.167,3.1708,3.1735,3.1748,3.1782,3.1797,3.1836,3.1817,3.1832,3.1862,3.188,3.1921,3.1874,3.1927,3.1929,3.1921,3.2006,3.2017,3.2087,3.1978,3.198,3.1981,0,3.157,3.1603,3.1675,3.1708,3.1724,3.1758,3.1797,3.1829,3.186,3.1868,3.1895,3.1895,3.1942,3.1914,3.198,3.1948,3.197,3.1982,3.1985,3.1991,3.1959,3.2017,3.2109,3.212,3.1997,3.1995,3.1994,0,3.1619,3.168,3.1732,3.1749,3.1788,3.1812,3.183,3.1859,3.1884,3.1918,3.1934,3.1973,3.1995,3.2026,3.2038,3.2016,3.2105,3.2077,3.2115,3.2115,3.2134,3.2133,3.2234,3.2146,3.2146,3.2145,3.2145,0,3.1691,3.1736,3.1755,3.1787,3.1839,3.1847,3.1898,3.1915,3.1942,3.1978,3.1977,3.2011,3.2024,3.2062,3.2072,3.2127,3.2136,3.2145,3.2148,3.2146,3.2146,3.2162,3.2158,3.2148,3.2148,3.2147,3.2146,0,3.1753,3.1768,3.1825,3.1857,3.1867,3.1904,3.1932,3.1965,3.1978,3.2025,3.2037,3.2058,3.2103,3.2118,3.2171,3.2178,3.2243,3.224,3.2232,3.2233,3.2271,3.2269,3.2387,3.2405,3.2303,3.2304,3.2305,0,3.1799,3.1834,3.1871,3.1896,3.1914,3.1953,3.1979,3.199,3.2016,3.2056,3.2085,3.2129,3.2164,3.2236,3.2258,3.23,3.2299,3.2338,3.2305,3.2304,3.2303,3.2301,3.2306,3.2344,3.2345,3.2346,3.2347,0,3.188,3.1886,3.1922,3.1963,3.1993,3.2025,3.2056,3.2076,3.2092,3.2122,3.2168,3.2196,3.2252,3.2297,3.234,3.2359,3.2357,3.2357,3.2368,3.2368,3.2364,3.237,3.2251,3.2354,3.2354,3.2353,3.2353,3.2352,3.1938,3.197,3.2001,3.2043,3.2068,3.2097,3.213,3.2148,3.2186,3.2232,3.2237,3.2287,3.232,3.2378,3.24,3.244,3.243,3.2445,3.245,3.2454,3.2458,3.2356,3.2448,3.2448,3.2447,3.2447,3.2447,0,3.2021,3.2041,3.2079,3.2123,3.2157,3.2151,3.2186,3.2214,3.2258,3.2289,3.2325,3.2379,3.2423,3.2449,3.2494,3.2522,3.2522,3.2533,3.2532,3.2538,3.2464,3.2451,3.2533,3.2533,3.2533,3.2533,3.2532,3.2532,3.2068,3.2123,3.2133,3.2201,3.2222,3.2271,3.2291,3.232,3.2345,3.2405,3.2442,3.2458,3.2488,3.2535,3.2577,3.2583,3.2601,3.2614,3.262,3.2551,3.2542,3.2534,3.2522,3.2617,3.2617,3.269,3.2691,3.2692]},{"header":{"parameterUnit":"m.s-1","parameterCategory":1,"la1":30.2991,"la2":30.254,"lo1":-89.0895,"lo2":-89.0444,"dy":0.0017,"dx":0.0017,"nx":28,"ny":28,"refTime":"2024-12-20T09:00:00:Z","depth":0,"parameterNumber":3,"parameterNumberName":"V-component_of_WINDS"},"data":[0,0,0,0,0,0,0,0,0,0,0,0,0,0,0,0,0,0,0,0,0,0,0,0,0,0,0,0,0,0,0,0,0,0,0,0,0,0,0,0,0,0,0,0,0,0,0,0,0,0,0,0,0,0,0,0,0,0,-2.5972,-2.5972,0,-2.5972,-2.5972,-2.5972,-2.601,-2.6011,-2.6012,-2.6013,-2.6008,-2.6007,-2.6006,0,0,0,0,0,0,0,0,0,0,0,0,0,-2.6001,-2.6,-2.5972,-2.5972,-2.5972,-2.5972,-2.5972,-2.5972,-2.601,-2.6011,-2.6012,-2.6014,-2.6008,-2.6007,-2.6006,0,0,0,0,0,0,0,0,0,0,0,0,0,-2.5993,-2.6,-2.5972,-2.5991,-2.5993,-2.5972,-2.5972,-2.5972,-2.601,-2.6011,-2.6013,-2.6014,-2.6009,-2.6007,-2.6006,-2.5965,0,0,-2.6001,-2.6,0,0,0,0,0,0,0,0,-2.5993,-2.5992,-2.5988,-2.5989,-2.5991,-2.5993,-2.598,-2.597,-2.6009,-2.6003,-2.6013,-2.6015,-2.6001,-2.6,-2.5997,-2.5965,-2.5965,-2.6001,-2.6,-2.5999,-2.5998,0,0,0,0,0,0,0,-2.5994,-2.5992,-2.5972,-2.5988,-2.599,-2.5998,-2.5999,-2.5979,-2.5993,-2.6004,-2.6006,-2.6006,-2.6003,-2.5998,-2.5997,-2.5965,-2.6001,-2.5999,-2.5998,-2.5998,-2.5902,-2.59,0,0,0,0,0,0,-2.5992,-2.5992,-2.5972,-2.5972,-2.5996,-2.5997,-2.5997,-2.5991,-2.5994,-2.5996,-2.6005,-2.6008,-2.6001,-2.5999,-2.5997,-2.5951,-2.5999,-2.5997,-2.5996,-2.5903,-2.5901,-2.59,0,0,0,0,0,0,-2.5993,-2.599,-2.5972,-2.5983,-2.5981,-2.5995,-2.5987,-2.599,-2.5986,-2.5995,-2.5997,-2.5998,-2.6002,-2.5999,-2.5974,-2.5952,-2.5997,-2.5995,-2.5905,-2.5903,-2.5901,-2.5858,0,0,0,0,0,0,-2.5994,-2.599,-2.5975,-2.5982,-2.598,-2.5949,-2.5985,-2.5989,-2.5984,-2.5988,-2.5989,-2.5991,-2.6003,-2.5976,-2.5972,-2.595,-2.5994,-2.5907,-2.5904,-2.5901,-2.5862,-2.5855,-2.5849,0,0,0,0,0,-2.5994,-2.5962,-2.5975,-2.5972,-2.5963,-2.5948,-2.5946,-2.5962,-2.5982,-2.5967,-2.5973,-2.5991,-2.5955,-2.5973,-2.5969,-2.5946,-2.5909,-2.5905,-2.5902,-2.5865,-2.5856,-2.5849,0,0,0,0,0,0,-2.5949,-2.5963,-2.5977,-2.5946,-2.5946,-2.5954,-2.5936,-2.5952,-2.5945,-2.5949,-2.5967,-2.5967,-2.5939,-2.594,-2.596,-2.5908,-2.5935,-2.5931,-2.5908,-2.5901,-2.5894,-2.5894,-2.5993,0,0,0,0,0,-2.5936,-2.5925,-2.5936,-2.5908,-2.5907,-2.5922,-2.5915,-2.5928,-2.5928,-2.5927,-2.5931,-2.5929,-2.5918,-2.5909,-2.5899,-2.5863,-2.5864,-2.5845,-2.5839,-2.5834,-2.5829,-2.5812,-2.5804,-2.5888,-2.5888,-2.5888,0,0,-2.5908,-2.5914,-2.5905,-2.5899,-2.59,-2.5887,-2.5921,-2.5904,-2.5895,-2.5924,-2.5901,-2.5904,-2.5903,-2.5872,-2.5859,-2.5872,-2.5807,-2.5829,-2.5825,-2.5823,-2.5807,-2.5799,-2.5792,-2.5886,-2.5886,-2.5886,0,0,-2.585,-2.5853,-2.5831,-2.5832,-2.5835,-2.5845,-2.584,-2.5847,-2.5851,-2.5828,-2.5851,-2.5839,-2.5818,-2.5817,-2.5813,-2.5758,-2.5775,-2.5754,-2.572,-2.5703,-2.5696,-2.5691,-2.5672,-2.5664,-2.575,-2.575,-2.575,0,-2.5814,-2.5796,-2.5817,-2.58,-2.5797,-2.5826,-2.5803,-2.5803,-2.5801,-2.5798,-2.5814,-2.579,-2.5791,-2.5762,-2.5749,-2.5745,-2.5739,-2.5754,-2.5696,-2.569,-2.5685,-2.5667,-2.566,-2.5747,-2.5748,-2.5748,-2.5748,0,-2.5752,-2.574,-2.5721,-2.5722,-2.5717,-2.5696,-2.5714,-2.5706,-2.572,-2.5728,-2.5705,-2.5708,-2.57,-2.5694,-2.5706,-2.5667,-2.5675,-2.5693,-2.572,-2.5674,-2.5658,-2.5651,-2.5744,-2.5745,-2.5746,-2.5746,0,0,-2.5663,-2.5678,-2.5671,-2.5673,-2.5679,-2.5669,-2.5651,-2.5645,-2.5639,-2.5637,-2.5622,-2.5606,-2.5623,-2.5619,-2.5632,-2.5617,-2.5574,-2.5637,-2.5637,-2.5626,-2.5532,-2.5519,-2.551,-2.5586,-2.5585,-2.5584,-2.5533,0,-2.5608,-2.558,-2.5599,-2.5567,-2.5556,-2.5584,-2.5569,-2.5571,-2.5579,-2.557,-2.5578,-2.5567,-2.559,-2.5589,-2.5575,-2.5582,-2.5556,-2.5586,-2.5572,-2.5571,-2.5571,-2.5502,-2.5486,-2.5438,-2.5526,-2.5525,-2.5524,0,-2.5539,-2.5537,-2.5505,-2.5516,-2.5512,-2.5498,-2.5495,-2.5487,-2.549,-2.5497,-2.5494,-2.5511,-2.5494,-2.5522,-2.5498,-2.5518,-2.5514,-2.5517,-2.5515,-2.5514,-2.5544,-2.5498,-2.5423,-2.5415,-2.5514,-2.5515,-2.5516,0,-2.5478,-2.5468,-2.5448,-2.5448,-2.546,-2.5449,-2.5454,-2.5459,-2.5455,-2.5452,-2.545,-2.5444,-2.5441,-2.5437,-2.5452,-2.547,-2.5426,-2.5455,-2.5431,-2.5431,-2.542,-2.542,-2.5342,-2.5417,-2.5417,-2.5417,-2.5417,0,-2.5414,-2.5393,-2.5421,-2.5408,-2.5386,-2.5409,-2.5385,-2.5393,-2.5397,-2.5386,-2.541,-2.5399,-2.542,-2.5411,-2.5422,-2.5402,-2.54,-2.5405,-2.5408,-2.5402,-2.5402,-2.5399,-2.5403,-2.5415,-2.5416,-2.5416,-2.5416,0,-2.5341,-2.5359,-2.534,-2.5354,-2.5357,-2.534,-2.5352,-2.5341,-2.5352,-2.5338,-2.5336,-2.5352,-2.5343,-2.5358,-2.535,-2.5358,-2.5329,-2.5338,-2.5329,-2.5331,-2.5307,-2.5309,-2.5224,-2.5214,-2.5295,-2.5295,-2.5294,0,-2.5299,-2.5284,-2.5298,-2.5294,-2.5297,-2.5289,-2.5287,-2.5309,-2.5304,-2.5309,-2.5297,-2.529,-2.5286,-2.527,-2.5281,-2.5275,-2.5284,-2.5254,-2.5282,-2.5278,-2.5284,-2.5284,-2.5283,-2.5248,-2.5247,-2.5246,-2.5246,0,-2.5222,-2.5233,-2.5228,-2.5228,-2.5225,-2.5225,-2.5227,-2.5221,-2.5245,-2.5239,-2.5232,-2.5229,-2.5222,-2.5216,-2.5213,-2.5216,-2.5235,-2.5237,-2.5231,-2.5225,-2.5221,-2.5224,-2.5313,-2.5238,-2.5239,-2.524,-2.524,-2.524,-2.5163,-2.5152,-2.5161,-2.5157,-2.5161,-2.5163,-2.5154,-2.5165,-2.516,-2.5158,-2.5171,-2.5161,-2.5166,-2.5165,-2.5167,-2.5159,-2.5172,-2.5163,-2.5161,-2.5158,-2.5155,-2.5223,-2.5158,-2.5159,-2.5159,-2.5159,-2.5159,0,-2.5088,-2.5096,-2.5092,-2.5095,-2.5092,-2.5112,-2.5116,-2.5111,-2.5103,-2.5107,-2.5104,-2.5096,-2.509,-2.5102,-2.5098,-2.5089,-2.5097,-2.5087,-2.5088,-2.5089,-2.5143,-2.5149,-2.5081,-2.5081,-2.5081,-2.5081,-2.5081,-2.5081,-2.5048,-2.5032,-2.5044,-2.5029,-2.5037,-2.5029,-2.503,-2.5032,-2.5036,-2.5027,-2.5023,-2.5032,-2.5039,-2.5036,-2.5032,-2.5036,-2.5033,-2.502,-2.5026,-2.5077,-2.5084,-2.5092,-2.5097,-2.5019,-2.5019,-2.4972,-2.4972,-2.4971]}]]